Location: Big Sky Observatory Site
(50.2333°N, 113.4000°W)
Time: 05:49:34
(UTC-07:00)

Envisat - Visible Passes

Search period start: 24 November 2017 00:00
Search period end: 04 December 2017 00:00
Orbit: 764 x 766 km, 98.2° (Epoch: 24 November)

Date Brightness Start Highest point End Pass type
(mag) Time Alt. Az. Time Alt. Az. Time Alt. Az.
24 Nov 4.9 18:45:49 14° NNE 18:45:49 14° NNE 18:46:51 10° N visible
24 Nov 5.4 20:26:02 14° NNW 20:26:02 14° NNW 20:26:44 10° NNW visible
25 Nov 5.1 19:48:57 16° N 19:48:57 16° N 19:49:58 10° N visible
26 Nov 5.0 19:11:53 15° N 19:11:53 15° N 19:12:55 10° N visible
26 Nov 5.8 20:52:06 10° NNW 20:52:06 10° NNW 20:52:11 10° NNW visible
27 Nov 5.0 18:34:48 12° NNE 18:34:48 12° NNE 18:35:28 10° NNE visible
27 Nov 5.4 20:15:00 14° NNW 20:15:00 14° NNW 20:15:38 10° NNW visible
28 Nov 5.1 19:37:56 15° N 19:37:56 15° N 19:38:46 10° N visible
29 Nov 5.0 19:00:50 14° N 19:00:50 14° N 19:01:37 10° N visible
29 Nov 5.8 20:41:03 11° NNW 20:41:03 11° NNW 20:41:09 10° NNW visible
30 Nov 5.1 18:23:44 11° NNE 18:23:44 11° NNE 18:23:59 10° NNE visible
30 Nov 5.4 20:03:57 13° NNW 20:03:57 13° NNW 20:04:30 10° NNW visible
01 Dec 5.2 19:26:51 14° N 19:26:51 14° N 19:27:33 10° N visible
02 Dec 5.1 18:49:45 12° NNE 18:49:45 12° NNE 18:50:18 10° N visible
02 Dec 5.7 20:29:57 11° NNW 20:29:57 11° NNW 20:30:05 10° NNW visible
03 Dec 5.4 19:52:51 13° N 19:52:51 13° N 19:53:20 10° N visible
